Starlink 11190

operational
NORAD ID: 60911 Int'l Des: 2024-154 Owner: SPXS Country: US Constellation: starlink
LEOCIRCULAR

关于 Starlink 11190

正在加载描述...

实时位置

正在加载3D地球...

即将过境

高度历史

Altitude vs Time

uPlot chart will show altitude changes over time

两行轨道根数

1 60911U 24154J 26034.11474120 -.00001173 00000-0 -48285-5 0 9994
2 60911 53.1589 301.7298 0001039 106.8830 253.2302 15.69707669 83070
Epoch: Feb 3, 2026 • Age: 25 hours

当前状态

高度 361.9 km
速度 7.70 km/s
星下点 34.39°N, 142.13°E
发射日期 Aug 31, 2024
运行时间 1.4 years
类型 internet

技术详情

分类 Payload
质量 960.00 kg
干质量 910.00 kg
总质量 960.00 kg
长度 0.30 m
直径 4.10 m
跨度 29.00 m
形状 Box + pan
制造商 SPXS
平台类型 Starlink V2MD
阶段状态 In Orbit
所有者/国家 SPXS/US

大型星座

Loading constellations...